STARLINK-11188 [DTC]

Last updated on Sat Sep 28 2024 00:02:03 GMT+0000 (Coordinated Universal Time)

1 60722U 24152C 24271.24277663 -.00003748 00000+0 -26114-4 0 9995 2 60722 53.1608 201.5089 0001536 106.4355 253.6832 15.69687065 5957
UTC large
Height (km)
Speed (km/s)
/
Latitude / Longitude
Inclination (degrees)
Orbital Period (minutes)
Azimuth
Elevation
Range (km)
Doppler Factor

Next 0 passes for location: London (51.5072 / 0.1276)

Sorry there are no passes over London.